{"data":{"norad_id":61708,"intl_designator":"2024-196B","name":"STARLINK-32402","alt_names":[],"object_type":"PAYLOAD","status":"ACTIVE","operator":null,"country":"US","launch_date":"2024-10-30","launch_site_code":"AFETR","launch_vehicle":null,"mission":null,"orbit_class":"UNKNOWN","rcs_meters":null,"size_class":null,"mass_kg":null,"dimensions":null,"purposes":["comms"],"wikipedia_slug":null,"has_3d_model":false,"image_url":null,"decayed_at":null,"tle_current":{"epoch":"2026-05-25T03:42:18.162432Z","epoch_age_seconds":68587,"freshness":"FRESH","line1":"1 61708U 24196B   26145.15437688  .00000689  00000+0  35396-4 0  9996","line2":"2 61708  53.1606 106.1732 0001415  79.6015 280.5145 15.30192013 88864","mean_motion":15.30192013,"eccentricity":0.0001415,"inclination_deg":53.1606,"raan_deg":106.1732,"arg_perigee_deg":79.6015,"mean_anomaly_deg":280.5145,"bstar":3.5396e-5,"rev_number":8886,"period_min":94.105836899307,"perigee_km":474.26916457309,"apogee_km":476.20866995768,"semimajor_km":6853.3759172654,"source":"CELESTRAK","updated_at":"2026-05-25T13:38:19.443715Z"}}}